Tracking 17557 objects as of 8-February-2016
HD Live streaming from Space Station
objects crossing your sky now

FALCON 9 R/B

Track FALCON 9 R/B now!
10-day predictions


NORAD ID: 37253
Int'l Code: 2010-066K
Perigee: 305.7 km
Apogee: 10,349.0 km
Inclination: 34.5 °
Period: 209.9 minutes
Semi major axis: 11698 km
RCS: 20.0149 m2 (large)
Launch date: December 8, 2010
Source: United States (US)
Launch site: AIR FORCE EASTERN TEST RANGE (AFETR)

Note: This is a ROCKET BODY
Your satellite tracking list
Your tracking list is empty





NASA's NSSDC Master Catalog

Two Line Element Set (TLE):
1 37253U 10066K   16038.31674707  .00003808  00000-0  41037-3 0  9993
2 37253  34.5263   8.1304 4292612 211.7319 113.2514  6.8614584126447
Source of the keplerian elements: AFSPC

N2YO: 544